Location: Unspecified
(35.7250°N, 0.0000°E)
Time: 18:37:21
(UTC+00:00)

Vanguard 2 - Pass Details

Date: 22 June 2019
Orbit: 554 x 2938 km, 32.9° (Epoch: 23 August)

Event Time Altitude Azimuth Distance (km) Brightness Sun altitude
Rises 14:14:07 0° 277° (W) 4,818 12.0 59.0°
Reaches altitude 10° 14:17:16 10° 268° (W) 4,140 11.9 58.3°
Maximum altitude 14:27:30 35° 209° (SSW) 3,388 11.7 56.3°
Drops below altitude 10° 14:41:32 10° 152° (SSE) 5,657 11.9 53.5°
Sets 14:46:51 0° 144° (SE) 6,770 12.2 52.4°
